This is the latest recevied weather packets stored in our database for station/object VK3CG. If no packets are shown the sender has not sent any weather packets the latest 10 day(s).
| Time | Temp. | Humidity | Pressure | Rain* | Wind** | Luminosity | Snow |
|---|---|---|---|---|---|---|---|
| 1777618834 | 20.56° C | 39% | 1032.7 hPa | 0 mm | - | 23 W/m² | - |
| 1777617938 | 21.11° C | 38% | 1032.8 hPa | 0 mm | - | 30 W/m² | - |
| 1777617036 | 21.11° C | 36% | 1032.9 hPa | 0 mm | - | 51 W/m² | - |
| 1777616135 | 21.67° C | 37% | 1033 hPa | 0 mm | - | 49 W/m² | - |
| 1777615229 | 22.22° C | 35% | 1033.2 hPa | 0 mm | - | 70 W/m² | - |
| 1777614331 | 22.22° C | 35% | 1033.3 hPa | 0 mm | - | 151 W/m² | - |
| 1777613427 | 22.22° C | 35% | 1033.2 hPa | 0 mm | - | 118 W/m² | - |
| 1777612524 | 22.22° C | 36% | 1033.2 hPa | 0 mm | - | 165 W/m² | - |
| 1777611623 | 22.78° C | 34% | 1033.2 hPa | 0 mm | - | 369 W/m² | - |
| 1777610722 | 23.33° C | 35% | 1033.3 hPa | 0 mm | - | 436 W/m² | - |
| 1777609821 | 23.33° C | 34% | 1033.5 hPa | 0 mm | - | 315 W/m² | - |
| 1777608920 | 23.33° C | 34% | 1033.4 hPa | 0 mm | - | 487 W/m² | - |
| 1777608024 | 22.78° C | 36% | 1033.5 hPa | 0 mm | - | 508 W/m² | - |
| 1777607115 | 23.33° C | 35% | 1033.5 hPa | 0 mm | - | 526 W/m² | - |
| 1777606214 | 22.78° C | 36% | 1033.8 hPa | 0 mm | - | 547 W/m² | - |
| 1777605311 | 22.78° C | 36% | 1034 hPa | 0 mm | - | 582 W/m² | - |
| 1777604415 | 22.78° C | 37% | 1034.1 hPa | 0 mm | - | 584 W/m² | - |
| 1777603507 | 22.22° C | 38% | 1034.4 hPa | 0 mm | - | 610 W/m² | - |
| 1777602604 | 22.22° C | 37% | 1034.6 hPa | 0 mm | - | 601 W/m² | - |
| 1777601768 | 21.67° C | 38% | 1035.1 hPa | 0 mm | - | 598 W/m² | - |
| 1777600874 | 21.67° C | 39% | 1035.2 hPa | 0 mm | - | 606 W/m² | - |
| 1777599954 | 21.67° C | 39% | 1035.5 hPa | 0 mm | - | 587 W/m² | - |
| 1777599051 | 21.11° C | 39% | 1035.6 hPa | 0 mm | - | 580 W/m² | - |
| 1777598160 | 20.56° C | 40% | 1035.7 hPa | 0 mm | - | 566 W/m² | - |
| 1777597245 | 20.56° C | 41% | 1035.9 hPa | 0 mm | - | 550 W/m² | - |
* Rain latest hour (hover to see other rain measurements)
** Current wind speed in m/s (hover to see current wind gust speed)